Orbital Elements at Epoch 2459200.5 (2020-Dec-17.0) TDB
Reference: JPL 26 (heliocentric ecliptic J2000)
Element | Value | Uncertainty (1-sigma) | Units |
e | .5874861305395409 | 3.0724e-07 | |
a | .6628350453999277 | 7.2968e-09 | au |
q | .2734286493919232 | 2.0208e-07 | au |
i | 20.37004995444542 | 2.5478e-05 | deg |
node | 85.93011499674186 | 0.00012706 | deg |
peri | 248.1552572997813 | 0.00012278 | deg |
M | 158.9554214277028 | 0.00013687 | deg |
tp | 2459113.467899658907 (2020-Sep-20.96789966) | 7.3753e-05 | TDB |
period | 197.109075244999 0.54 | 3.2548e-06 8.911e-09 | d yr |
n | 1.826399923760658 | 3.0159e-08 | deg/d |
Q | 1.052241441407932 | 1.1584e-08 | au |
|
| | Orbit Determination Parameters
Additional Information
|